Regional Weather Roundup
Issued by NWS Little Rock, AR

Home | Current Version | Previous Version | Text Only | Print | Product List | Glossary Off
Versions: 1 2 3 4 5 6 7 8 9 10 11 12 13 14 15 16 17 18 19 20 21 22 23 24 25 26 27 28 29 30 31 32 33 34 35 36 37 38 39 40 41 42 43 44 45 46 47 48 49 50

000
ASUS44 KLZK 200805
RWRLZK

WEATHER ROUNDUP FOR ARKANSAS
NATIONAL WEATHER SERVICE LITTLE ROCK AR
200 AM CST TUE FEB 20 2018

NOTE: "FAIR" INDICATES FEW OR NO CLOUDS BELOW 12,000 FEET WITH NO
SIGNIFICANT WEATHER AND/OR OBSTRUCTIONS TO VISIBILITY.

ARZ001-003-010-029-200900-
NORTHWEST ARKANSAS

CITY           SKY/WX    TMP DP  RH WIND       PRES   REMARKS
FAYETTEVILLE   CLOUDY    67  59  75 S20G26    29.85R
FORT SMITH     CLOUDY    72  61  68 S12       29.86S
HARRISON       CLOUDY    67  57  70 S16G32    29.87F
BENTONVILLE    CLOUDY    67  57  70 S17G24    29.86R
ROGERS         CLOUDY    67  57  70 S22G28    29.85R
SILOAM SPGS    LGT RAIN  66  57  72 S12       29.86R
HIGHFILL       CLOUDY    66  57  72 S18       29.85R
$$

ARZ004-005-016-200900-
NORTH CENTRAL ARKANSAS

CITY           SKY/WX    TMP DP  RH WIND       PRES   REMARKS
BATESVILLE     CLOUDY    68  60  75 S10       29.99S
FLIPPIN        MOCLDY    69  58  67 S8        29.91S
MTN HOME       CLOUDY    68  58  70 SW14G23   29.91R
$$

ARZ040-041-200900-
WEST CENTRAL ARKANSAS

CITY           SKY/WX    TMP DP  RH WIND       PRES   REMARKS
MENA           CLOUDY    70  68  94 S7G22     29.91S
MOUNT IDA      CLOUDY    70  63  78 SW8G21    29.91S
$$

ARZ009-017-025-026-028-200900-
NORTHEAST ARKANSAS

CITY           SKY/WX    TMP DP  RH WIND       PRES   REMARKS
JONESBORO      MOCLDY    66  60  81 S18       30.01R
WALNUT RIDGE   LGT RAIN  65  60  84 S16       30.00S
BLYTHEVILLE    MOCLDY    69  61  75 S14       30.04R
$$

ARZ022-023-033-042-044-200900-
CENTRAL ARKANSAS

CITY           SKY/WX    TMP DP  RH WIND       PRES   REMARKS
LITTLE ROCK    CLOUDY    69  60  73 S12       30.00R
N LITTLE ROCK    N/A     68  61  78 S7        29.96R
JACKSONVILLE   CLOUDY    68  60  75 SE5       30.00R
SEARCY         CLOUDY    68  63  84 S16       30.00R
HOT SPRINGS    CLOUDY    70  62  76 S14G22    29.95F
RUSSELLVILLE   CLOUDY    68  61  78 SE5       29.92F
CLINTON        MOCLDY    68  59  73 S10G20    29.94F
$$

ARZ036-200900-
EAST ARKANSAS

CITY           SKY/WX    TMP DP  RH WIND       PRES   REMARKS
WEST MEMPHIS   FAIR      67  61  81 S13       30.05R
$$

ARZ050-053-066-070-073-200900-
SOUTHWEST ARKANSAS

CITY           SKY/WX    TMP DP  RH WIND       PRES   REMARKS
ARKADELPHIA    CLOUDY    69  62  78 S13       29.98S
CAMDEN         MOCLDY    70  61  73 S13G20    30.00S
TEXARKANA      CLOUDY    69  64  84 S14       29.95S
EL DORADO      MOCLDY    68  65  90 SE13      30.02F
DE QUEEN       CLOUDY    70  65  84 S10       29.90S
$$

ARZ056-057-069-200900-
SOUTHEAST ARKANSAS

CITY           SKY/WX    TMP DP  RH WIND       PRES   REMARKS
PINE BLUFF     FAIR      67  60  78 S17       30.02S
STUTTGART      MOCLDY    67  59  75 S16       30.03S
MONTICELLO     FAIR      66  59  78 S7        30.05S

$$





USA.gov is the U.S. government's official web portal to all federal, state and local government web resources and services.